• In Germany
  • List of Countries
  • For 7 days
  • Water Temperature
  • Satellite Maps
  • Weather Map
  • Weather Widgets
  • user-avatar
    Login

    Hourly Weather Florencia

    Today, 16 July, Monday

    Time Temperature Precipitation Wind Pressure Humidity
    00:00 +23°C° 0 mm 1 mps 735 mmHg 75%
    01:00 +23°C° 0 mm 1 mps 735 mmHg 74%
    02:00 +22°C° 0 mm 1 mps 735 mmHg 74%
    03:00 +22°C° 0 mm 1 mps 735 mmHg 75%
    04:00 +22°C° 0 mm 1 mps 735 mmHg 75%
    05:00 +23°C° 0 mm 1 mps 735 mmHg 75%
    06:00 +23°C° 0 mm 1 mps 735 mmHg 74%
    07:00 +23°C° 0 mm 1 mps 735 mmHg 74%
    08:00 +26°C° 0 mm 1 mps 736 mmHg 65%
    09:00 +29°C° 0 mm 1 mps 736 mmHg 56%
    10:00 +32°C° 0 mm 1 mps 736 mmHg 47%
    11:00 +33°C° 0 mm 1 mps 736 mmHg 45%
    12:00 +33°C° 0 mm 1 mps 735 mmHg 43%
    13:00 +34°C° 0 mm 1 mps 734 mmHg 41%
    14:00 +34°C° 0 mm 1 mps 734 mmHg 43%
    15:00 +33°C° 0 mm 1 mps 733 mmHg 44%
    16:00 +33°C° 0 mm 1 mps 732 mmHg 45%
    17:00 +31°C° 0 mm 1 mps 733 mmHg 53%
    18:00 +28°C° 0 mm 1 mps 733 mmHg 60%
    19:00 +26°C° 0 mm 1 mps 733 mmHg 68%
    20:00 +26°C° 0 mm 1 mps 734 mmHg 68%
    21:00 +25°C° 0 mm 1 mps 735 mmHg 68%
    22:00 +25°C° 0 mm 1 mps 735 mmHg 68%
    23:00 +25°C° 0.1 mm 1 mps 735 mmHg 69%

    Tomorrow, 17 July, Tuesday

    Time Temperature Precipitation Wind Pressure Humidity
    00:00 +25°C° 0.1 mm 1 mps 735 mmHg 70%
    01:00 +24°C° 0.1 mm 1 mps 735 mmHg 71%
    02:00 +24°C° 0.2 mm 1 mps 735 mmHg 73%
    03:00 +24°C° 0.2 mm 1 mps 735 mmHg 74%
    04:00 +22°C° 0.2 mm 0 mps 734 mmHg 76%
    05:00 +22°C° 0.3 mm 0 mps 735 mmHg 79%
    06:00 +21°C° 0.3 mm 0 mps 735 mmHg 82%
    07:00 +21°C° 0.3 mm 0 mps 735 mmHg 85%
    08:00 +21°C° 0.7 mm 0 mps 736 mmHg 86%
    09:00 +21°C° 0.7 mm 0 mps 736 mmHg 87%
    10:00 +21°C° 0.7 mm 0 mps 737 mmHg 89%
    11:00 +22°C° 0.4 mm 0 mps 736 mmHg 86%
    12:00 +23°C° 0.4 mm 0 mps 736 mmHg 83%
    13:00 +24°C° 0.4 mm 0 mps 735 mmHg 80%
    14:00 +24°C° 0.1 mm 0 mps 734 mmHg 77%
    15:00 +27°C° 0.1 mm 1 mps 734 mmHg 74%
    16:00 +27°C° 0.1 mm 1 mps 733 mmHg 71%
    17:00 +24°C° 0 mm 0 mps 733 mmHg 74%
    18:00 +23°C° 0 mm 0 mps 733 mmHg 77%
    19:00 +22°C° 0 mm 0 mps 734 mmHg 81%
    20:00 +22°C° 0.1 mm 0 mps 734 mmHg 80%
    21:00 +22°C° 0.1 mm 0 mps 735 mmHg 80%
    22:00 +24°C° 0.1 mm 1 mps 736 mmHg 79%
    23:00 +24°C° 0.2 mm 1 mps 735 mmHg 80%

    Day after tomorrow, 18 July, Wednesday

    Time Temperature Precipitation Wind Pressure Humidity
    00:00 +23°C° 0.2 mm 1 mps 735 mmHg 80%
    01:00 +23°C° 0.2 mm 1 mps 735 mmHg 81%
    02:00 +21°C° 0.2 mm 0 mps 734 mmHg 81%
    03:00 +21°C° 0.2 mm 0 mps 734 mmHg 81%
    04:00 +21°C° 0.2 mm 0 mps 734 mmHg 82%
    05:00 +21°C° 0.2 mm 0 mps 734 mmHg 82%
    06:00 +21°C° 0.2 mm 0 mps 734 mmHg 82%
    07:00 +21°C° 0.2 mm 0 mps 734 mmHg 83%
    08:00 +23°C° 0.2 mm 0 mps 735 mmHg 78%
    09:00 +24°C° 0.2 mm 0 mps 735 mmHg 73%
    10:00 +28°C° 0.2 mm 1 mps 736 mmHg 68%
    11:00 +27°C° 0.4 mm 1 mps 735 mmHg 74%
    12:00 +26°C° 0.4 mm 1 mps 735 mmHg 79%
    13:00 +25°C° 0.4 mm 1 mps 734 mmHg 84%
    14:00 +26°C° 0.2 mm 1 mps 733 mmHg 81%
    15:00 +26°C° 0.2 mm 1 mps 733 mmHg 79%
    16:00 +27°C° 0.2 mm 1 mps 732 mmHg 76%
    17:00 +26°C° 0 mm 1 mps 732 mmHg 81%
    18:00 +23°C° 0 mm 0 mps 732 mmHg 85%
    19:00 +21°C° 0 mm 0 mps 733 mmHg 90%
    20:00 +21°C° 0 mm 0 mps 733 mmHg 89%
    21:00 +23°C° 0 mm 1 mps 734 mmHg 89%
    22:00 +23°C° 0 mm 1 mps 734 mmHg 89%
    23:00 +23°C° 0.2 mm 1 mps 734 mmHg 87%

    19 July, Thursday

    Time Temperature Precipitation Wind Pressure Humidity
    00:00 +23°C° 0.2 mm 1 mps 734 mmHg 86%
    01:00 +23°C° 0.2 mm 1 mps 734 mmHg 85%
    02:00 +23°C° 0.4 mm 1 mps 733 mmHg 84%
    03:00 +23°C° 0.4 mm 1 mps 733 mmHg 83%
    04:00 +21°C° 0.4 mm 0 mps 733 mmHg 81%
    05:00 +21°C° 0.4 mm 0 mps 733 mmHg 81%
    06:00 +22°C° 0.4 mm 0 mps 734 mmHg 81%
    07:00 +22°C° 0.4 mm 0 mps 734 mmHg 80%
    08:00 +24°C° 0.3 mm 0 mps 735 mmHg 75%
    09:00 +25°C° 0.3 mm 0 mps 735 mmHg 70%
    10:00 +27°C° 0.3 mm 0 mps 735 mmHg 65%
    11:00 +26°C° 0.3 mm 0 mps 735 mmHg 68%
    12:00 +28°C° 0.3 mm 1 mps 734 mmHg 71%
    13:00 +27°C° 0.3 mm 1 mps 733 mmHg 74%
    14:00 +28°C° 0.1 mm 1 mps 733 mmHg 72%
    15:00 +28°C° 0.1 mm 1 mps 732 mmHg 70%
    16:00 +29°C° 0.1 mm 1 mps 732 mmHg 68%
    17:00 +27°C° 0 mm 1 mps 732 mmHg 73%
    18:00 +26°C° 0 mm 1 mps 732 mmHg 78%
    19:00 +23°C° 0 mm 0 mps 733 mmHg 83%
    20:00 +23°C° 0.1 mm 0 mps 733 mmHg 82%
    21:00 +25°C° 0.1 mm 1 mps 734 mmHg 82%
    22:00 +24°C° 0.1 mm 1 mps 735 mmHg 82%
    23:00 +24°C° 0.4 mm 1 mps 734 mmHg 83%

    20 July, Friday

    Time Temperature Precipitation Wind Pressure Humidity
    00:00 +24°C° 0.4 mm 1 mps 734 mmHg 83%
    01:00 +24°C° 0.4 mm 1 mps 734 mmHg 84%
    02:00 +24°C° 0.5 mm 1 mps 734 mmHg 84%
    03:00 +24°C° 0.5 mm 1 mps 733 mmHg 85%
    04:00 +23°C° 0.5 mm 1 mps 733 mmHg 86%
    05:00 +24°C° 0.3 mm 1 mps 734 mmHg 86%
    06:00 +24°C° 0.3 mm 1 mps 734 mmHg 86%
    07:00 +24°C° 0.3 mm 1 mps 734 mmHg 87%
    08:00 +25°C° 0.3 mm 1 mps 735 mmHg 81%
    09:00 +27°C° 0.3 mm 1 mps 735 mmHg 76%
    10:00 +29°C° 0.3 mm 1 mps 735 mmHg 71%
    11:00 +28°C° 0.4 mm 1 mps 735 mmHg 72%
    12:00 +28°C° 0.4 mm 1 mps 734 mmHg 73%
    13:00 +28°C° 0.4 mm 1 mps 733 mmHg 75%
    14:00 +26°C° 0.3 mm 0 mps 733 mmHg 74%
    15:00 +27°C° 0.3 mm 0 mps 732 mmHg 74%
    16:00 +27°C° 0.3 mm 0 mps 732 mmHg 74%
    17:00 +25°C° 0.1 mm 0 mps 732 mmHg 79%
    18:00 +24°C° 0.1 mm 0 mps 732 mmHg 84%
    19:00 +23°C° 0.1 mm 0 mps 733 mmHg 89%
    20:00 +23°C° 0 mm 0 mps 733 mmHg 89%
    21:00 +24°C° 0 mm 1 mps 734 mmHg 89%
    22:00 +24°C° 0 mm 1 mps 734 mmHg 89%
    23:00 +24°C° 0.4 mm 1 mps 734 mmHg 89%

    21 July, Saturday

    Time Temperature Precipitation Wind Pressure Humidity
    00:00 +24°C° 0.4 mm 1 mps 734 mmHg 89%
    01:00 +24°C° 0.4 mm 1 mps 734 mmHg 89%
    02:00 +24°C° 0.4 mm 1 mps 734 mmHg 89%
    03:00 +23°C° 0.4 mm 1 mps 733 mmHg 89%
    04:00 +23°C° 0.4 mm 1 mps 733 mmHg 88%
    05:00 +23°C° 0.2 mm 1 mps 734 mmHg 88%
    06:00 +22°C° 0.2 mm 0 mps 734 mmHg 87%
    07:00 +22°C° 0.2 mm 0 mps 734 mmHg 86%
    08:00 +23°C° 0.2 mm 0 mps 735 mmHg 82%
    09:00 +26°C° 0.2 mm 1 mps 735 mmHg 78%
    10:00 +28°C° 0.2 mm 1 mps 735 mmHg 74%
    11:00 +29°C° 0.1 mm 1 mps 734 mmHg 68%
    12:00 +31°C° 0.1 mm 1 mps 734 mmHg 62%
    13:00 +33°C° 0.1 mm 1 mps 733 mmHg 56%
    14:00 +32°C° 0.2 mm 1 mps 732 mmHg 58%
    15:00 +32°C° 0.2 mm 1 mps 732 mmHg 60%
    16:00 +31°C° 0.2 mm 1 mps 731 mmHg 62%
    17:00 +30°C° 0.1 mm 1 mps 731 mmHg 69%
    18:00 +28°C° 0.1 mm 1 mps 732 mmHg 77%
    19:00 +26°C° 0.1 mm 1 mps 732 mmHg 84%
    20:00 +26°C° 0.4 mm 1 mps 733 mmHg 86%
    21:00 +25°C° 0.4 mm 1 mps 733 mmHg 89%
    22:00 +23°C° 0.4 mm 0 mps 734 mmHg 91%
    23:00 +22°C° 0.8 mm 0 mps 734 mmHg 91%
    Show more